Regional Weather Roundup
Issued by NWS Green Bay, WI

Home | Current Version | Previous Version | Text Only | Print | Product List | Glossary On
Versions: 1 2 3 4 5 6 7 8 9 10 11 12 13 14 15 16 17 18 19 20 21 22 23 24 25 26 27 28 29 30 31 32 33 34 35 36 37 38 39 40 41 42 43 44 45 46 47 48 49 50
000
ASUS43 KGRB 271659
RWRGRB

NORTH-CENTRAL AND NORTHEAST WISCONSIN REGIONAL WEATHER ROUNDUP
NATIONAL WEATHER SERVICE GREEN BAY WI
1100 AM CST THU NOV 27 2014

WIZ005-009-010>012-018-019-271800-
NORTH CENTRAL WISCONSIN

CITY           SKY/WX    TMP DP  RH WIND       PRES   REMARKS
IRONWOOD       CLOUDY    10   7  85 NW14      30.34F WCI  -5
MANITOWISH WTR NOT AVBL
ARBOR VITAE    NOT AVBL
EAGLE RIVER    NOT AVBL
LAND O LAKES   NOT AVBL
RHINELANDER    MOSUNNY    9   1  70 N9        30.31S WCI  -4
PHILLIPS       NOT AVBL
ANTIGO         NOT AVBL
TOMAHAWK       NOT AVBL
MERRILL        NOT AVBL
$$

WIZ013-073-271800-
NORTHEAST WISCONSIN

CITY           SKY/WX    TMP DP  RH WIND       PRES   REMARKS
IRON MOUNTAIN  MOSUNNY   12   1  61 NW16      30.30F WCI  -5
MARINETTE      SUNNY     16   3  57 N13       30.33S WCI   2
$$

WIZ017-030-035>037-045-271800-
CENTRAL WISCONSIN

CITY           SKY/WX    TMP DP  RH WIND       PRES   REMARKS
MEDFORD        NOT AVBL
WAUSAU         SUNNY     11   2  67 NW9       30.35S WCI  -2
MOSINEE        MOSUNNY   10   7  85 N8        30.37R WCI  -1
MARSHFIELD     SUNNY      8   0  69 NW12      30.37S WCI  -7
WISC RAPIDS    SUNNY     11   2  67 NW8       30.40S WCI  -1
STEVENS POINT  NOT AVBL
WAUPACA        NOT AVBL
SHAWANO        NOT AVBL
CLINTONVILLE   NOT AVBL
$$

WIZ038-039-048-051-271800-
FOX VALLEY

CITY           SKY/WX    TMP DP  RH WIND       PRES   REMARKS
NWS GREEN BAY  SUNNY     17   5  59 NW14      30.35S WCI   3
APPLETON       PTSUNNY   16   7  67 NW12      30.35R WCI   3
OSHKOSH        CLOUDY    17   8  67 MISG      30.35S
FOND DU LAC    LGT SNOW  18  10  71 NW14      30.35S WCI   4
$$

WIZ022-050-052-271800-
EAST CENTRAL WISCONSIN

CITY           SKY/WX    TMP DP  RH WIND       PRES   REMARKS
STURGEON BAY   MOSUNNY   16   5  62 N17       30.32S WCI   0
MANITOWOC      NOT AVBL
SHEBOYGAN      CLOUDY    19   9  65 NW15      30.34R WCI   5
$$

LMZ563-521-522-541>543-271800-
LAKESHORE

STATION/POSITION TIME  TEMP    WIND        PRES    VSBY  WAVE
                       AIR SEA DIR/SP/G                  HT/PER
                 (UTC) (F)     (DEG/KT/KT) (MB)    (MI)  (FT/S)
SHEBOYGAN LKSHOR 1600   18 35  330/ 17/ 21 1028.6R
KEWAUNEE LKSHORE 1600   17     340/ 14/ 18 1026.4R
NORTHPORT PIER   1600   18     330/ 19/ 25 1026.4S
N MID LAKE BUOY  1600   20 42  320/ 19/ 25 1026.3R         5/ 5
SISTER BAY LKSHO 1600          330/ 24/ 30   N/A
STURGEON BAY CG  1600   18     360/ 10     1027.0      6   1
CHAMBERS ISLAND  1600   18     310/ 17/ 24 1027.1R
MENOMINEE LKSHOR 1600   15     320/ 18/ 21 1027.8R
$$


USA.gov is the U.S. government's official web portal to all federal, state and local government web resources and services.